Regional Weather Roundup
Issued by NWS Sterling, VA

Home | Current Version | Previous Version | Text Only | Print | Product List | Glossary Off
Versions: 1 2 3 4 5 6 7 8 9 10 11 12 13 14 15 16 17 18 19 20 21 22 23 24 25 26 27

000
ASUS41 KLWX 240311
RWRLWX

REGIONAL WEATHER ROUNDUP
NATIONAL WEATHER SERVICE BALTIMORE MD/WASHINGTON DC
1100 PM EDT MON APR 23 2018

Note: "FAIR" indicates few or no clouds below 12,000 feet
with no significant weather and/or obstructions to visibility.
 TC=TEMPERATURE CELSIUS

 * =Non NWS site. Station does not report precipitation (e.g. rain,
    snow, etc.), thunder, or fog.

DCZ001-MDZ009-015-VAZ040>042-051-053>054-240400-
WASHINGTON METRO

CITY           SKY/WX    TMP DP  RH WIND       PRES   REMARKS
WASHINGTON NAT MOCLDY    56  33  42 S6        30.39S
DULLES         CLOUDY    56  28  34 SE8       30.36F
ANDREWS AFB    FAIR      52  32  45 SE3       30.37S
FT BELVOIR     FAIR      55  30  38 E3        30.37
QUANTICO       FAIR      57  41  55 SE12      30.38F
COLLEGE PARK*  FAIR      53  30  41 CALM      30.38S
LEESBURG*      FAIR      59  30  33 SE7       30.37S
MANASSAS*      FAIR      56  32  40 SE8       30.36F
GAITHERSBURG*  FAIR      54  24  31 SE7       30.38F

$$

MDZ006>007-011-014-240400-
BALTIMORE METRO

CITY           SKY/WX    TMP DP  RH WIND       PRES   REMARKS
BWI AIRPORT    MOCLDY    53  29  39 CALM      30.38S
MD SCIENCE CTR   N/A     59  33  37 MISG      30.39F
ANNAPOLIS      FAIR      58  40  51 SE8       30.37F
FORT MEADE*    FAIR      48  28  46 CALM      30.40F

$$

MDZ012-015-019>023-240400-
MARYLAND EASTERN SHORE

CITY           SKY/WX    TMP DP  RH WIND       PRES   REMARKS
OCEAN CITY     FAIR      49  43  80 E5        30.40F
SALISBURY      FAIR      47  37  68 CALM      30.40S
BAY BRIDGE AP* FAIR      55  30  38 SE9       30.38F
CAMBRIDGE*     CLEAR     52  36  54 E7        30.39F
EASTON*        FAIR      53  30  40 SE6       30.43F

$$

MDZ017>025-240400-
SOUTHERN MARYLAND

CITY           SKY/WX    TMP DP  RH WIND       PRES   REMARKS
PATUXENT RIVER MOCLDY    55  46  71 S5        30.38R
ST INIGOES     FAIR      54  44  69 E7        30.37S
LEONARDTOWN*   FAIR      54  37  54 E7        30.39F

$$

MDZ003>005-240400-
NORTH CENTRAL MARYLAND

CITY           SKY/WX    TMP DP  RH WIND       PRES   REMARKS
FREDERICK*     FAIR      55  19  24 SE5       30.39S
HAGERSTOWN APT FAIR      58  38  47 S13       30.34S
WESTMINSTER*   FAIR     N/A N/A N/A SE5         N/A

$$

MDZ501>502-240400-
WESTERN MARYLAND

CITY           SKY/WX    TMP DP  RH WIND       PRES   REMARKS
OAKLAND*       FAIR      46  39  76 SE17G24   30.25F
CUMBERLAND*    FAIR      59  41  51 SE7       30.33S

$$

VAZ025>031-240400-
SHENANDOAH VALLEY

CITY           SKY/WX    TMP DP  RH WIND       PRES   REMARKS
WINCHESTER*    FAIR      54  36  50 SE8       30.35S
FRONT ROYAL*   MOCLDY    55  34  44 SE3       30.33S
LURAY*         CLOUDY    57  34  41 SE13G20   30.33S
NEW MARKET*    CLOUDY    57  36  45 SE10G16   30.31R
STAUNTON*      MOCLDY    55  38  51 SE8       30.32F
WAYNESBORO*    CLOUDY    55  38  54 E8G17     30.29F

$$

WVZ021-048>050-054>055-240400-
EASTERN WEST VIRGINIA PANHANDLE

CITY           SKY/WX    TMP DP  RH WIND       PRES   REMARKS
MARTINSBURG    FAIR      56  35  45 SE9       30.33S
PETERSBURG*    CLOUDY    59  41  52 SE17      30.28R

$$

VAZ036>039-050-240400-
CENTRAL FOOTHILLS

CITY           SKY/WX    TMP DP  RH WIND       PRES   REMARKS
CHARLOTTESVILL CLOUDY    59  35  40 SE9       30.32F
CULPEPER*      FAIR      57  30  34 SE3       30.36F
ORANGE*        FAIR      55  32  41 CALM      30.34S
GORDONSVILLE*  FAIR      57  35  43 CALM      30.33F
WARRENTON*     FAIR      56  29  34 E5        30.34F

$$

VAZ055>057-240400-
NORTH AND CENTRAL PIEDMONT

CITY           SKY/WX    TMP DP  RH WIND       PRES   REMARKS
FREDERICKSBRG* FAIR      56  34  42 E5        30.35S
STAFFORD*      FAIR      56  34  42 E7        30.39F

$$

NCZ024-NYZ072-PAZ021-071-VAZ022-071-240400-
OTHER REGIONAL OBSERVATIONS

CITY           SKY/WX    TMP DP  RH WIND       PRES   REMARKS
NEW YORK CITY  FAIR      51  37  58 S5        30.46F
PHILADELPHIA   MOCLDY    52  27  38 SE5       30.42F
PITTSBURGH     LGT RAIN  62  41  46 SE12      30.21S
ROANOKE        LGT RAIN  54  51  90 SE8       30.27R
RICHMOND       CLOUDY    56  42  59 E10       30.33F
RALEIGH        CLOUDY    59  49  69 E16       30.20F

$$

ANZ530>537-240400-
MARINE OBSERVATIONS

STATION/POSITION TIME  TEMP    WIND        PRES
                       AIR SEA DIR/SP/G
                 (UTC) (F)     (DEG/KT/KT) (MB)
THOMAS PT LIGHT  0300   55 53  120/ 10/ 11 1029.6F
BALT KEY BRIDGE  0248   56     130/  7/  8 1028.7F
COVE POINT       0248   56     150/ 13/ 16 1029.2S
LEWISETTA        0248   56 57  130/  9/ 10 1028.3F
SOLOMONS ISLAND  0248   54 54  140/  7/  9 1028.4F
PINEY POINT      0248          130/ 13/ 14   N/A

$$





USA.gov is the U.S. government's official web portal to all federal, state and local government web resources and services.